Regional Weather Roundup
Issued by NWS

Home | Current Version | Previous Version | Text Only | Print | Product List | Glossary On
Versions: 1 2 3 4 5 6 7 8 9 10 11 12 13 14 15 16 17 18 19 20 21 22 23 24 25 26 27 28 29 30 31 32 33 34 35 36 37 38 39 40 41 42 43 44 45 46 47 48 49 50
000
ASUS46 KPQR 210410
RWROR

OREGON REGIONAL WEATHER ROUNDUP
NATIONAL WEATHER SERVICE PORTLAND OR
900 PM PDT MON OCT 20 2014

NOTE: "FAIR" INDICATES FEW OR NO CLOUDS BELOW 12,000 FEET WITH
NO SIGNIFICANT WEATHER AND/OR OBSTRUCTIONS TO VISIBILITY.

ORZ001>013-210500-
NORTHWEST OREGON


CITY           SKY/WX    TMP DP  RH WIND       PRES   REMARKS
ASTORIA        LGT RAIN  57  52  83 S10G21    29.77S
NEWPORT        MOCLDY    55  54  94 S16G23    29.86S
PORTLAND       PTCLDY    55  53  93 E8        29.84R
VANCOUVER WA   PTCLDY    56  51  84 SE5       29.83R
SCAPPOOSE      PTCLDY    51  50  96 SW5       29.82R FOG
HILLSBORO      PTCLDY    53  52  96 SE5       29.82S
AURORA         PTCLDY    56  52  86 S7        29.84S
MCMINNVILLE    MOCLDY    54  50  86 SE6       29.84R
SALEM          PTCLDY    54  51  90 S8        29.84R
CORVALLIS      MOCLDY    54  52  94 S3        29.86S
EUGENE         MOCLDY    52  50  93 S6        29.87R
$$

ORZ021-028-210500-
SOUTHWEST OREGON


CITY           SKY/WX    TMP DP  RH WIND       PRES   REMARKS
NORTH BEND     PTCLDY    55  55 100 S10       29.89S
BROOKINGS      CLOUDY    54  53  96 SE5       29.95R
ROSEBURG       MOCLDY    55  48  77 S3        29.90R
SEXTON SUMMIT  FOG       41  41 100 S10       29.92R VSB 1/4
MEDFORD        CLOUDY    54  45  71 S3        29.94R
$$

ORZ009-041-210500-
COLUMBIA GORGE


CITY           SKY/WX    TMP DP  RH WIND       PRES   REMARKS
TROUTDALE      PTCLDY    54  51  90 CALM      29.83R
THE DALLES     MOCLDY    51  49  92 CALM      29.84R
$$

ORZ029>031-042>050-061>064-210500-
EASTERN OREGON


CITY           SKY/WX    TMP DP  RH WIND       PRES   REMARKS
REDMOND        PTCLDY    45  42  89 CALM      29.86S
BEND           PTCLDY    46  39  76 SW7       29.88S
KLAMATH FALLS  RAIN      44  39  82 W12       29.95R
LAKEVIEW       MOCLDY    43  37  81 S9        29.92S
HERMISTON      CLOUDY    53  51  93 SE8       29.85F
PENDLETON      LGT RAIN  51  49  92 SE5       29.88S
JOHN DAY       LGT RAIN  49  46  90 CALM      29.89F
MEACHAM        LGT RAIN  44  42  93 CALM      29.91R
LA GRANDE      CLOUDY    52  34  50 NW16G24   29.87R
BAKER CITY     LGT RAIN  49  40  71 NW22G31   29.83R
BURNS          CLOUDY    50  37  61 SW9       29.88R
ROME             N/A     58  26  29 SW10      29.77R
ONTARIO        MOCLDY    56  35  45 SW16      29.71R
$$



USA.gov is the U.S. government's official web portal to all federal, state and local government web resources and services.